CST,Max TemperatureF,Mean TemperatureF,Min TemperatureF,Max Dew PointF,MeanDew PointF,Min DewpointF,Max Humidity, Mean Humidity, Min Humidity, Max Sea Level PressureIn, Mean Sea Level PressureIn, Min Sea Level PressureIn, Max VisibilityMiles, Mean VisibilityMiles, Min VisibilityMiles, Max Wind SpeedMPH, Mean Wind SpeedMPH, Max Gust SpeedMPH,PrecipitationIn, CloudCover, Events, WindDirDegrees
2013-11-1,48,43,38,45,40,37,93,82,71,29.79,29.61,29.43,10,9,6,18,9,26,0.03,8,Rain,266
2013-11-2,50,41,32,38,35,32,96,76,56,30.19,29.99,29.79,10,10,7,14,6,17,0.00,6,,331
2013-11-3,51,40,28,39,32,25,100,74,48,30.34,30.27,30.19,10,7,0,17,6,22,0.00,4,Fog,151
2013-11-4,58,50,42,44,39,35,80,68,55,30.25,30.18,30.09,10,10,10,28,13,33,0.00,8,,175
2013-11-5,54,52,49,52,48,44,100,89,77,30.27,30.12,29.94,10,6,1,28,11,35,0.06,8,Rain,165
2013-11-6,57,45,32,54,40,24,93,76,59,30.22,29.97,29.79,10,9,4,22,14,30,0.40,6,Rain,282
2013-11-7,40,33,25,31,28,24,92,78,64,30.28,30.25,30.22,10,10,10,14,7,18,0.00,3,,257
2013-11-8,48,37,25,33,29,23,92,71,49,30.36,30.19,29.90,10,9,6,23,10,30,0.00,5,,178
2013-11-9,57,48,39,38,35,23,71,58,45,30.16,29.96,29.84,10,10,10,29,16,37,0.00,3,,258
2013-11-10,49,40,30,32,29,26,85,66,46,30.38,30.30,30.17,10,10,10,20,8,24,0.00,4,,259
2013-11-11,46,33,20,34,27,14,96,75,53,30.60,30.29,30.10,10,7,0,24,10,30,0.12,7,Rain-Snow,339
2013-11-12,31,25,18,19,15,12,77,65,53,30.77,30.70,30.61,10,10,10,15,8,21,0.00,0,,308
2013-11-13,41,29,16,21,17,12,88,61,34,30.63,30.40,30.17,10,10,10,23,11,29,0.00,2,,206
2013-11-14,50,41,31,28,24,18,64,52,39,30.15,30.02,29.94,10,10,10,20,11,26,0.00,6,,207
2013-11-15,53,43,32,35,29,24,85,63,41,29.99,29.96,29.93,10,10,10,15,9,18,0.00,4,,192
2013-11-16,59,48,37,55,48,34,100,90,79,29.92,29.72,29.56,10,6,2,30,19,40,0.05,7,Rain,174
2013-11-17,69,55,40,63,51,34,93,82,70,29.78,29.40,29.15,10,7,1,38,17,53,1.24,7,Rain-Thunderstorm,228
2013-11-18,42,36,29,33,26,23,82,67,51,30.30,30.07,29.80,10,10,10,29,15,37,0.00,3,,296
2013-11-19,41,31,21,27,24,18,92,72,51,30.40,30.34,30.29,10,10,10,13,5,15,0.00,1,,141
2013-11-20,41,36,30,36,31,27,85,75,64,30.30,30.18,30.10,10,8,4,21,12,25,0.13,7,Rain,150
2013-11-21,47,42,37,41,38,36,92,84,76,30.26,30.19,30.12,7,5,2,15,4,20,T,8,Fog-Rain-Snow,11
2013-11-22,41,32,22,37,27,16,92,76,59,30.52,30.43,30.25,10,9,6,21,10,28,0.02,6,Rain-Snow,337
2013-11-23,24,18,12,15,7,2,77,58,39,30.77,30.65,30.49,10,10,9,25,13,32,T,1,Snow,330
2013-11-24,26,18,9,10,5,2,80,57,33,30.77,30.62,30.39,10,10,10,16,8,22,0.00,0,,238
2013-11-25,32,27,21,26,21,10,85,70,55,30.35,30.17,30.09,10,7,1,22,12,29,0.04,8,Snow,224
2013-11-26,33,23,13,26,18,3,92,71,49,30.26,30.13,30.07,10,10,4,24,9,30,T,7,Snow,313
2013-11-27,26,18,9,14,8,2,73,62,50,30.32,30.29,30.25,10,10,10,17,8,21,0.00,3,,317
2013-11-28,32,24,16,15,13,11,80,65,49,30.55,30.33,30.21,10,10,10,15,7,18,0.00,3,,245
2013-11-29,34,23,11,21,15,6,91,69,47,30.68,30.56,30.41,10,10,10,14,5,17,0.00,5,,158
2013-11-30,49,37,24,31,25,20,92,71,49,30.39,30.19,30.07,10,9,6,16,7,20,0.00,1,,183